sat.trackr.live / text

‹ back to catalog

KUIPER-00047

NORAD 64507 · 2025-134H

PAYLOAD ACTIVE UNKNOWN

§ Identity

Operator
Country
US
Launch date
2025-06-23
Launch site
AFETR
Launch vehicle
Mass (kg)
RCS (m²)

External: N2YO · Heavens-Above · Gunter

§ Orbital elements

Epoch: 2026-09-21T15:42:29.811744Z

Period
97.30 min
Inclination
51.8989°
Eccentricity
0.0000678
Mean motion
14.79930139 rev/d
Perigee alt
629.1 km
Apogee alt
630.0 km
Semi-major
7,007.7 km
B*
2.2951e-5
RAAN
68.9936°
Arg perigee
118.0968°
Mean anomaly
242.0063°
Rev number
6,933

§ Raw data

KUIPER-000471 64507U 25134H   26264.65451171 -.00000046  00000+0  22951-4 0  99902 64507  51.8989  68.9936 0000678 118.0968 242.0063 14.79930139 69333

JSON: /api/v1/satellites/64507 · /tle

For live sub-satellite position, see the globe view (requires WebGL).

§ Visibility from observer

Set your observer location to see the next 7 days of passes ≥ 10°. The values pass through the URL so the page stays shareable.

No JS? Fill the form by hand. The geolocation button needs JavaScript.